Sisters Island, British Columbia

9:22 AM PST on December 15, 2017 (GMT -0800)
Sisters Island

Weather History for CWGT - September, 2013

Change the Weather History Date:

Thursday, September 19, 2013

  Actual Average Record
Temperature  
Mean Temperature 62 °F -  
Max Temperature 65 °F - - ()
Min Temperature 58 °F - - ()
Degree Days  
Heating Degree Days 4    
Growing Degree Days 12 (Base 50)    
Moisture  
Dew Point 51 °F    
Average Humidity 69    
Maximum Humidity 81    
Minimum Humidity 43    
Precipitation  
Precipitation 0.00 in - - ()
Sea Level Pressure  
Sea Level Pressure 29.86 in    
Wind  
Wind Speed 20 mph ()    
Max Wind Speed 29 mph    
Max Gust Speed -    
T = Trace of Precipitation, MM = Missing Value Source: Averaged Metar Reports

Daily Weather History Graph

Daily Weather History Graph

Search for Another Location

Airport or City:

Trip Planner

Search our weather history database for the weather conditions in past years. The results will help you decide how hot, cold, wet, or windy it might be!

Date:

Astronomy

Sep. 19, 2013 Rise Set
Actual Time 7:00 AM PDT 7:21 PM PDT
Civil Twilight 6:28 AM PDT 7:53 PM PDT
Nautical Twilight 5:50 AM PDT 8:31 PM PDT
Astronomical Twilight 5:10 AM PDT 9:10 PM PDT
Moon 7:14 PM PDT (9/19) 7:21 AM PDT (9/19)
Length of Visible Light 13h 25m
Length of Day
12h 21m
Full, 100% of the Moon is Illuminated
Sep 19
Full
Sep 26
Last Quarter
Oct 4
New
Oct 11
First Quarter
Oct 18
Full

Hourly Weather History & Observations

Time (PDT) Temp. Dew Point Humidity Pressure Visibility Wind Dir Wind Speed Gust Speed Precip Events Conditions
12:00 AM 60.3 °F 54.1 °F 80% 30.01 in - SE 17.3 mph - N/A   Unknown
1:00 AM 59.9 °F 53.1 °F 78% 30.00 in - SE 18.4 mph - N/A   Unknown
2:00 AM 59.9 °F 53.6 °F 80% 29.98 in - ESE 23.0 mph - N/A   Unknown
3:00 AM 59.4 °F 53.4 °F 81% 29.98 in - SE 21.9 mph - N/A   Unknown
4:00 AM 59.0 °F 52.9 °F 80% 29.96 in - SE 24.2 mph - N/A   Unknown
5:00 AM 59 °F 53 °F 73% 29.95 in - ESE 24.2 mph - -  
5:00 AM 58.6 °F 52.5 °F 80% 29.95 in - ESE 24.2 mph - N/A   Unknown
6:00 AM 58.6 °F 52.7 °F 81% 29.95 in - SE 24.2 mph - N/A   Unknown
7:00 AM 58.8 °F 51.4 °F 76% 29.94 in - ESE 24.2 mph - N/A   Unknown
8:00 AM 59.2 °F 51.1 °F 74% 29.94 in - ESE 21.9 mph - N/A   Unknown
9:00 AM 59.4 °F 52.0 °F 77% 29.92 in - ESE 20.7 mph - N/A   Unknown
10:00 AM 59.5 °F 50.5 °F 72% 29.90 in - ESE 25.3 mph - N/A   Unknown
11:00 AM 60 °F 51 °F 63% 29.90 in - ESE 24.2 mph - -  
11:00 AM 60.3 °F 50.5 °F 70% 29.90 in - ESE 24.2 mph - N/A   Unknown
12:00 PM 60.4 °F 49.8 °F 68% 29.88 in - ESE 24.2 mph - N/A   Unknown
1:00 PM 61.0 °F 50.9 °F 69% 29.86 in - ESE 25.3 mph - N/A   Unknown
2:00 PM 61.2 °F 50.7 °F 69% 29.84 in - ESE 25.3 mph - N/A   Unknown
3:00 PM 61.7 °F 51.3 °F 69% 29.81 in - ESE 25.3 mph - N/A   Unknown
4:00 PM 62.8 °F 52.7 °F 70% 29.78 in - ESE 27.6 mph - N/A   Unknown
5:00 PM 65 °F 48 °F 43% 29.75 in - ESE 28.8 mph - -  
5:00 PM 65.3 °F 47.7 °F 53% 29.75 in - ESE 28.8 mph - N/A   Unknown
6:00 PM 65.3 °F 48.2 °F 54% 29.73 in - ESE 26.5 mph - N/A   Unknown
7:00 PM 63.9 °F 51.8 °F 65% 29.73 in - ESE 20.7 mph - N/A   Unknown
8:00 PM 64.2 °F 50.0 °F 60% 29.72 in - ESE 21.9 mph - N/A   Unknown
9:00 PM 63.7 °F 51.3 °F 64% 29.73 in - SSE 11.5 mph - N/A   Unknown
10:00 PM 65.5 °F 47.1 °F 51% 29.71 in - ESE 16.1 mph - N/A   Unknown
11:00 PM 64.2 °F 49.1 °F 58% 29.70 in - ESE 15.0 mph - N/A   Unknown